Location: Liscomb Game Sanctuary
(45.1633°N, 62.5575°W)
Time: 03:15:22
(UTC-03:00)

Amateur Radio Satellites - All Passes

Search period start: 31 October 2014 02:45
Search period end: 01 November 2014 02:45
Location: Liscomb Game Sanctuary, 45.1633°N, 62.5575°W

Satellite Date Start Highest point End Downlink Frequencies (MHz)
Time Altitude Azimuth
JAS-1B 31 Oct 02:53:28 03:00:29 74° 104° (ESE) 03:08:54 435.800 - 435.900 CW/SSB
AO-27 31 Oct 02:57:48 03:02:40 38° 97° (E) 03:07:29 436.795 MHz FM
Oscar 16 31 Oct 03:09:53 03:15:01 72° 287° (WNW) 03:20:06 437.025 USB, Beacon 2401.1428
Gurwin Techsat 1B 31 Oct 03:10:01 03:14:31 27° 94° (E) 03:19:00 435.225 FM
TMSAT-1 31 Oct 03:16:58 03:21:12 24° 93° (E) 03:25:24 436.925 FM
Sapphire 31 Oct 03:25:24 03:30:49 85° 302° (WNW) 03:36:17 437.095 MHz 1200 baud AX-25 AFSK
OPAL 31 Oct 03:40:35 03:42:11 11° 52° (NE) 03:43:46 ?
Uribyol 2 31 Oct 03:41:42 03:46:56 86° 286° (WNW) 03:52:07 436.500 FM
PCSat 31 Oct 03:47:21 03:52:40 55° 307° (NW) 03:58:01 145.825 MHz
ITAMSAT 1 31 Oct 03:49:31 03:54:45 78° 286° (WNW) 03:59:57 435.822 SSB
AO-Echo 31 Oct 03:49:39 03:54:53 59° 289° (WNW) 04:00:04 ?
Oscar 19 31 Oct 04:02:49 04:07:02 27° 296° (WNW) 04:11:15 437.125 CW, 437.150 USB
RS-15 31 Oct 04:02:51 04:12:37 34° 24° (NNE) 04:22:39 29.354 - 29.394 USB, Beacon 29.352 USB
AO-7 31 Oct 04:04:03 04:09:43 20° 89° (E) 04:15:21 29.400 - 29.500 MHz
AO-27 31 Oct 04:37:31 04:42:04 31° 295° (WNW) 04:46:36 436.795 MHz FM
JAS-1B 31 Oct 04:45:13 04:50:40 26° 300° (WNW) 04:56:53 435.800 - 435.900 CW/SSB
Gurwin Techsat 1B 31 Oct 04:49:37 04:54:38 43° 292° (WNW) 04:59:37 435.225 FM
Oscar 16 31 Oct 04:52:00 04:53:27 11° 306° (NW) 04:54:54 437.025 USB, Beacon 2401.1428
TMSAT-1 31 Oct 04:56:16 05:01:23 49° 290° (WNW) 05:06:27 436.925 FM
Sapphire 31 Oct 05:11:15 05:15:04 19° 323° (NW) 05:18:55 437.095 MHz 1200 baud AX-25 AFSK
OPAL 31 Oct 05:15:07 05:20:12 71° 71° (ENE) 05:25:14 ?
Uribyol 2 31 Oct 05:23:07 05:25:37 14° 304° (NW) 05:28:06 436.500 FM
ITAMSAT 1 31 Oct 05:31:15 05:33:23 13° 305° (NW) 05:35:31 435.822 SSB
PCSat 31 Oct 05:34:29 05:37:19 14° 329° (NNW) 05:40:11 145.825 MHz
STRAND 1 31 Oct 05:34:31 05:37:22 15° 57° (ENE) 05:40:13 ?
Uosat F 31 Oct 05:40:32 05:45:35 69° 103° (ESE) 05:50:36 435.120 FM
JAS-2 31 Oct 05:53:51 06:01:06 39° 94° (E) 06:08:08 435.800 - 435.900 CW/SSB, 435.910 FM
AO-7 31 Oct 05:55:12 06:03:36 88° 109° (ESE) 06:11:58 29.400 - 29.500 MHz
Saudisat 1A 31 Oct 06:08:38 06:12:44 40° 118° (ESE) 06:16:51 436.775 MHz
RS-15 31 Oct 06:15:46 06:26:58 79° 53° (NE) 06:38:38 29.354 - 29.394 USB, Beacon 29.352 USB
OPAL 31 Oct 06:56:33 06:59:34 16° 268° (W) 07:02:34 ?
Hamsat 31 Oct 07:10:08 07:14:22 87° 285° (WNW) 07:18:37 145.90 MHz
STRAND 1 31 Oct 07:10:42 07:15:51 85° 256° (WSW) 07:21:03 ?
Uosat F 31 Oct 07:20:32 07:23:50 18° 301° (WNW) 07:27:06 435.120 FM
JAS-2 31 Oct 07:38:42 07:46:14 53° 293° (WNW) 07:53:38 435.800 - 435.900 CW/SSB, 435.910 FM
MaSat-1 31 Oct 07:39:38 07:42:03 38° 58° (ENE) 07:44:19 437.345 MHz
Saudisat 1A 31 Oct 07:48:32 07:52:24 29° 317° (NW) 07:56:17 436.775 MHz
AO-7 31 Oct 07:49:03 07:55:26 26° 310° (NW) 08:01:49 29.400 - 29.500 MHz
SO-67 31 Oct 08:17:21 08:20:49 75° 102° (ESE) 08:24:15 435.3500 MHz FM
RS-15 31 Oct 08:29:00 08:38:19 32° 255° (WSW) 08:47:58 29.354 - 29.394 USB, Beacon 29.352 USB
HO-68 31 Oct 08:47:10 08:51:42 17° 88° (E) 08:56:11 435.675 MHz FM
STRAND 1 31 Oct 08:54:28 08:55:49 11° 273° (W) 08:57:10 ?
PCSat 31 Oct 09:09:21 09:09:52 10° 23° (NNE) 09:10:22 145.825 MHz
JAS-2 31 Oct 09:26:10 09:29:33 14° 313° (NW) 09:32:57 435.800 - 435.900 CW/SSB, 435.910 FM
Oscar 11 31 Oct 09:51:31 09:54:00 15° 90° (E) 09:56:27 145.825 FM, Beacon 2401.500 USB
KITSAT 1 31 Oct 09:53:40 09:58:41 18° 101° (E) 10:03:41 435.175 FM
ISS 31 Oct 10:07:47 10:10:07 18° 135° (SE) 10:12:28 145.800 FM
Sapphire 31 Oct 10:28:36 10:33:00 24° 41° (NE) 10:37:22 437.095 MHz 1200 baud AX-25 AFSK
HO-68 31 Oct 10:33:06 10:40:21 89° 108° (ESE) 10:47:33 435.675 MHz FM
PCSat 31 Oct 10:50:05 10:55:02 34° 47° (NE) 10:59:56 145.825 MHz
UKube-1 31 Oct 10:50:59 10:55:20 62° 102° (ESE) 10:59:39 145.840 MHz, 145.915 MHz
ZACube-1 31 Oct 10:59:47 11:03:35 32° 96° (E) 11:07:20 437.345 MHz
Oscar 11 31 Oct 11:26:18 11:30:32 55° 287° (WNW) 11:34:44 145.825 FM, Beacon 2401.500 USB
SO-50 31 Oct 11:35:11 11:39:31 49° 119° (ESE) 11:44:00 436.795 FM
FUNcube-1 31 Oct 11:42:28 11:46:42 86° 284° (WNW) 11:50:50 145.950 - 145.970 MHz USB
ISS 31 Oct 11:43:10 11:46:29 73° 333° (NNW) 11:49:49 145.800 FM
KITSAT 1 31 Oct 11:44:46 11:52:51 82° 121° (ESE) 12:00:58 435.175 FM
JAS-1B 31 Oct 11:57:09 11:58:47 11° 50° (NE) 12:00:25 435.800 - 435.900 CW/SSB
Oscar 19 31 Oct 12:06:37 12:08:30 12° 55° (NE) 12:10:22 437.125 CW, 437.150 USB
Sapphire 31 Oct 12:11:31 12:16:57 70° 242° (WSW) 12:22:19 437.095 MHz 1200 baud AX-25 AFSK
UOSAT-12 31 Oct 12:21:55 12:24:40 16° 109° (ESE) 12:27:26 437.025 FM, 437.400 FM
HO-68 31 Oct 12:22:02 12:27:10 22° 307° (NW) 12:32:18 435.675 MHz FM
UKube-1 31 Oct 12:28:29 12:31:02 15° 299° (WNW) 12:33:35 145.840 MHz, 145.915 MHz
PCSat 31 Oct 12:33:26 12:38:34 43° 246° (WSW) 12:43:39 145.825 MHz
ZACube-1 31 Oct 12:36:28 12:39:51 24° 294° (WNW) 12:43:12 437.345 MHz
AO-27 31 Oct 12:42:51 12:44:27 11° 54° (NE) 12:46:04 436.795 MHz FM
Oscar 16 31 Oct 12:50:38 12:55:00 29° 64° (ENE) 12:59:22 437.025 USB, Beacon 2401.1428
Saudisat 1A 31 Oct 12:54:50 12:57:02 13° 30° (NNE) 12:59:14 436.775 MHz
SO-50 31 Oct 13:16:25 13:20:19 27° 320° (NW) 13:24:19 436.795 FM
ISS 31 Oct 13:20:38 13:23:34 28° 352° (N) 13:26:30 145.800 FM
Uribyol 2 31 Oct 13:23:29 13:27:44 26° 63° (ENE) 13:32:00 436.500 FM
AO-Echo 31 Oct 13:26:33 13:30:56 31° 65° (ENE) 13:35:27 ?
ITAMSAT 1 31 Oct 13:31:14 13:35:38 28° 64° (ENE) 13:40:02 435.822 SSB
Oscar 19 31 Oct 13:41:51 13:46:59 77° 74° (ENE) 13:52:08 437.125 CW, 437.150 USB
KITSAT 1 31 Oct 13:42:05 13:49:09 32° 324° (NW) 13:56:15 435.175 FM
JAS-1B 31 Oct 13:42:39 13:48:20 71° 72° (ENE) 13:54:05 435.800 - 435.900 CW/SSB
UOSAT-12 31 Oct 13:59:35 14:04:14 73° 307° (NW) 14:08:58 437.025 FM, 437.400 FM
AO-27 31 Oct 14:17:50 14:23:02 71° 73° (ENE) 14:28:15 436.795 MHz FM
Oscar 16 31 Oct 14:29:22 14:34:12 40° 262° (W) 14:39:02 437.025 USB, Beacon 2401.1428
Gurwin Techsat 1B 31 Oct 14:32:57 14:38:04 52° 70° (ENE) 14:43:14 435.225 FM
Saudisat 1A 31 Oct 14:33:07 14:37:31 60° 51° (NE) 14:41:53 436.775 MHz
TMSAT-1 31 Oct 14:39:30 14:44:31 45° 69° (ENE) 14:49:33 436.925 FM
ISS 31 Oct 14:57:51 15:00:53 31° 12° (NNE) 15:03:54 145.800 FM
Uribyol 2 31 Oct 15:01:56 15:06:57 47° 261° (W) 15:12:00 436.500 FM
AO-Echo 31 Oct 15:05:00 15:09:36 36° 264° (W) 15:14:22 ?
AO-7 31 Oct 15:05:01 15:12:16 36° 56° (NE) 15:19:31 29.400 - 29.500 MHz
ITAMSAT 1 31 Oct 15:10:00 15:14:56 42° 262° (W) 15:19:54 435.822 SSB
Uosat F 31 Oct 15:19:23 15:22:37 17° 59° (ENE) 15:25:51 435.120 FM
Oscar 19 31 Oct 15:24:13 15:26:55 14° 271° (W) 15:29:37 437.125 CW, 437.150 USB
JAS-1B 31 Oct 15:36:27 15:39:47 16° 271° (W) 15:43:07 435.800 - 435.900 CW/SSB
UOSAT-12 31 Oct 15:42:15 15:45:13 16° 328° (NNW) 15:48:13 437.025 FM, 437.400 FM
KITSAT 1 31 Oct 15:42:39 15:47:34 17° 353° (N) 15:52:29 435.175 FM
AO-27 31 Oct 15:59:53 16:03:04 16° 270° (W) 16:06:16 436.795 MHz FM
JAS-2 31 Oct 16:09:31 16:14:17 21° 54° (NE) 16:19:24 435.800 - 435.900 CW/SSB, 435.910 FM
Saudisat 1A 31 Oct 16:13:43 16:16:38 17° 249° (WSW) 16:19:32 436.775 MHz
Gurwin Techsat 1B 31 Oct 16:14:13 16:18:20 23° 268° (W) 16:22:29 435.225 FM
TMSAT-1 31 Oct 16:20:13 16:24:37 26° 266° (W) 16:29:03 436.925 FM
ISS 31 Oct 16:34:29 16:37:50 79° 211° (SSW) 16:41:10 145.800 FM
Uosat F 31 Oct 16:55:50 17:00:50 71° 257° (WSW) 17:05:54 435.120 FM
AO-7 31 Oct 16:56:29 17:04:38 62° 256° (WSW) 17:12:52 29.400 - 29.500 MHz
OPAL 31 Oct 17:24:36 17:27:14 14° 92° (E) 17:29:52 ?
KITSAT 1 31 Oct 17:40:33 17:46:33 22° 23° (NNE) 17:52:32 435.175 FM
JAS-2 31 Oct 17:51:56 17:58:18 86° 256° (WSW) 18:05:35 435.800 - 435.900 CW/SSB, 435.910 FM
Hamsat 31 Oct 18:05:08 18:09:19 85° 76° (ENE) 18:13:31 145.90 MHz
ISS 31 Oct 18:12:39 18:14:01 12° 228° (SW) 18:15:24 145.800 FM
SO-50 31 Oct 18:24:54 18:28:10 18° 33° (NNE) 18:31:27 436.795 FM
SO-67 31 Oct 18:51:50 18:54:55 32° 71° (ENE) 18:58:01 435.3500 MHz FM
AO-7 31 Oct 18:56:56 18:59:08 11° 276° (W) 19:01:22 29.400 - 29.500 MHz
OPAL 31 Oct 19:01:42 19:06:40 74° 289° (WNW) 19:11:35 ?
HO-68 31 Oct 19:18:59 19:23:42 19° 51° (NE) 19:28:26 435.675 MHz FM
STRAND 1 31 Oct 19:19:44 19:24:09 28° 95° (E) 19:28:31 ?
KITSAT 1 31 Oct 19:35:54 19:43:53 58° 49° (NE) 19:51:48 435.175 FM
JAS-2 31 Oct 19:40:51 19:44:35 16° 277° (W) 19:48:34 435.800 - 435.900 CW/SSB, 435.910 FM
AO-40 31 Oct 19:44:13 23:21:04 28° 131° (SE) 00:47:06 Beacon 2401.320
SO-50 31 Oct 20:04:38 20:09:29 79° 53° (NE) 20:14:23 436.795 FM
SO-67 31 Oct 20:25:48 20:27:59 16° 268° (W) 20:30:11 435.3500 MHz FM
RS-15 31 Oct 20:42:41 20:52:28 40° 108° (ESE) 21:02:11 29.354 - 29.394 USB, Beacon 29.352 USB
OPAL 31 Oct 20:43:09 20:44:41 11° 308° (NW) 20:46:14 ?
UOSAT-12 31 Oct 20:47:40 20:51:48 29° 41° (NE) 20:55:53 437.025 FM, 437.400 FM
Oscar 11 31 Oct 20:48:50 20:51:32 17° 62° (ENE) 20:54:14 145.825 FM, Beacon 2401.500 USB
STRAND 1 31 Oct 20:58:39 21:03:26 40° 292° (WNW) 21:08:12 ?
HO-68 31 Oct 21:03:12 21:10:22 82° 71° (ENE) 21:17:36 435.675 MHz FM
FUNcube-1 31 Oct 21:07:17 21:09:00 12° 60° (ENE) 21:10:43 145.950 - 145.970 MHz USB
KITSAT 1 31 Oct 21:31:44 21:38:59 38° 250° (WSW) 21:46:12 435.175 FM
SO-50 31 Oct 21:46:43 21:49:28 15° 251° (WSW) 21:52:13 436.795 FM
UKube-1 31 Oct 21:48:07 21:52:27 70° 73° (ENE) 21:56:49 145.840 MHz, 145.915 MHz
ZACube-1 31 Oct 21:57:53 22:02:01 36° 70° (ENE) 22:06:05 437.345 MHz
Oscar 11 31 Oct 22:23:04 22:27:18 55° 260° (W) 22:31:33 145.825 FM, Beacon 2401.500 USB
UOSAT-12 31 Oct 22:27:37 22:32:09 47° 241° (WSW) 22:36:35 437.025 FM, 437.400 FM
FUNcube-1 31 Oct 22:40:13 22:44:45 85° 257° (WSW) 22:49:13 145.950 - 145.970 MHz USB
MaSat-1 31 Oct 22:50:46 22:54:36 79° 299° (WNW) 22:58:03 437.345 MHz
RS-15 31 Oct 22:53:18 23:04:11 67° 312° (NW) 23:15:09 29.354 - 29.394 USB, Beacon 29.352 USB
HO-68 31 Oct 22:53:50 22:58:52 20° 270° (W) 23:03:58 435.675 MHz FM
UKube-1 31 Oct 23:27:22 23:29:07 12° 271° (W) 23:30:53 145.840 MHz, 145.915 MHz
ZACube-1 31 Oct 23:34:48 23:38:29 24° 266° (W) 23:42:07 437.345 MHz
RS-15 01 Nov 01:09:45 01:19:04 31° 342° (NNW) 01:28:32 29.354 - 29.394 USB, Beacon 29.352 USB
Sapphire 01 Nov 01:17:10 01:17:56 10° 101° (E) 01:18:43 437.095 MHz 1200 baud AX-25 AFSK
JAS-1B 01 Nov 01:23:14 01:28:25 20° 91° (E) 01:34:09 435.800 - 435.900 CW/SSB
PCSat 01 Nov 01:35:40 01:39:13 18° 105° (ESE) 01:42:46 145.825 MHz
Oscar 19 01 Nov 01:52:03 01:56:05 23° 93° (E) 02:00:06 437.125 CW, 437.150 USB
AO-27 01 Nov 02:29:38 02:33:36 21° 92° (E) 02:37:32 436.795 MHz FM
